TEMELIN Weather Reports


Display with metric or nautical units.
time (UTC)temp
F
wind
direction
speed
MPH
gust
MPH
rain 1hr
in
rain 24hr
in
rain mn
in
humidity
%
barometer
mb
20201026221229 46 280 9.0 0.0 0.00 0.00 0.00 87
20201026211226 46 300 12.0 0.0 0.00 0.00 0.00 87
20201026201225 48 290 14.0 0.0 0.00 0.00 0.00 87
20201026191227 48 280 7.0 0.0 0.00 0.00 0.00 93
20201026181225 50 300 7.0 0.0 0.00 0.00 0.00 81
20201026171227 50 280 12.0 0.0 0.00 0.00 0.00 81
20201026161233 50 290 9.0 0.0 0.00 0.00 0.00 81
20201026151226 52 300 14.0 0.0 0.00 0.00 0.00 81
20201026141227 54 290 9.0 0.0 0.00 0.00 0.00 76
20201026131233 54 250 7.0 0.0 0.00 0.00 0.00 76
20201026121241 55 190 5.0 0.0 0.00 0.00 0.00 71
20201026111227 52 160 9.0 0.0 0.00 0.00 0.00 81
20201026101228 50 170 9.0 0.0 0.00 0.00 0.00 87
20201026091228 50 150 9.0 0.0 0.00 0.00 0.00 87
20201026081230 50 130 12.0 0.0 0.00 0.00 0.00 87
20201026071212 50 140 9.0 0.0 0.00 0.00 0.00 93
20201026061226 50 130 7.0 0.0 0.00 0.00 0.00 93
20201026051242 50 130 5.0 0.0 0.00 0.00 0.00 93
20201026041224 50 120 9.0 0.0 0.00 0.00 0.00 93
20201026031225 50 120 7.0 0.0 0.00 0.00 0.00 93
20201026021227 50 140 9.0 0.0 0.00 0.00 0.00 99
20201026011235 48 130 7.0 0.0 0.00 0.00 0.00 99
20201026001226 48 120 7.0 0.0 0.00 0.00 0.00 99
20201025231225 48 140 7.0 0.0 0.00 0.00 0.00 99